AirNav   Pilot Hours Calculator
 
 1553 users online  

73II Nulltown Wingnuts Ultralight Flightpark
Connersville, Indiana, USA

GOING TO CONNERSVILLE?


FAA INFORMATION EFFECTIVE 31 DECEMBER 2020

Location

FAA Identifier: 73II
Lat/Long: 39-34-18.0000N 085-09-31.0000W
39-34.300000N 085-09.516667W
39.5716667,-85.1586111
(estimated)
Elevation: 765 ft. / 233 m (estimated)
Variation: 03W (1990)
From city: 5 miles S of CONNERSVILLE, IN
Time zone: UTC -5 (UTC -4 during Daylight Saving Time)
Zip code: 47331

Ultralight Flight Park Operations

Ultralight Flight Park use: Private use. Permission required prior to landing
Activation date: 11/1994
Control tower: no
ARTCC: INDIANAPOLIS CENTER
FSS: TERRE HAUTE FLIGHT SERVICE STATION
Attendance: UNATNDD
Wind indicator: yes
Segmented circle: no

Ultralight Flight Park Communications

WX AWOS-3 at CEV (8 nm N): 118.325 (765-827-6649)
WX AWOS-3 at HLB (14 nm S): 122.725 (812-933-0108)
WX AWOS-3PT at OXD (18 nm E): 118.625 (513-273-2032)
WX AWOS-3 at RID (18 nm NE): 121.225 (765-983-1903)

Nearby radio navigation aids

VOR radial/distance  VOR name  Freq  Var
SHBr096/31.0SHELBYVILLE VOR/DME112.0001E
CVGr332/39.5CINCINNATI VORTAC117.3004W

 
NDB name  Hdg/Dist  Freq  Var  ID
PNTHR190/12.422704WSQ ... --.-
BATESVILLE024/14.325405WHLB .... .-.. -...
NEW CASTLE164/19.938506WUWL ..- .-- .-..
HOOK FIELD282/33.223904WHKF .... -.- ..-.

Ultralight Flight Park Services

Runway Information

Runway NE/SW

Dimensions: 2000 x 60 ft. / 610 x 18 m
Surface: turf
RUNWAY NE  RUNWAY SW
Traffic pattern: leftleft
Obstructions: none60 ft. trees, 800 ft. from runway

Ultralight Flight Park Ownership and Management from official FAA records

Ownership: Privately-owned
Owner: NULLTOWN WINGNUTS
BOX 1025 W CR 480S
CONNERSVILLE, IN 47331
Phone 317-825-6898
Manager: G. DOUG HOWARD
1025 W COUNTY ROAD 480 S
CONNERVILLE, IN 47331-8902
Phone (765) 821-1562
HOME: 765-821-1562

Ultralight Flight Park Operational Statistics

Aircraft based on the field: 7
Single engine airplanes: 4
Ultralights: 3
    

Additional Remarks

FOR CD CTC CINCINNATI APCH AT 859-372-6440

Instrument Procedures

There are no published instrument procedures at 73II.

Some nearby airports with instrument procedures:

KCEV - Mettel Field Airport (8 nm N)
KOXD - Miami University Airport (18 nm E)
KRID - Richmond Municipal Airport (18 nm NE)
KUWL - New Castle Henry County Airport / Marlatt Field (20 nm NW)
I34 - Greensburg Municipal Airport (22 nm SW)
 
Loc | Ops | Rwys | IFR | FBO | Links
Com | Nav | Svcs | Stats | Notes
Area around 73II (Nulltown Wingnuts Ultralight Flightpark)
 
Road maps at: MapQuest Bing Google
 
Aerial photo
No photo
 
Sectional chart

 
Airport distance calculator
Flying to Nulltown Wingnuts Ultralight Flightpark? Find the distance to fly.

From to 73II

Sunrise and sunset
Times for 25-Jan-2021
 Local
(UTC-5)
 Zulu
(UTC)
Morning civil twilight07:2612:26
Sunrise07:5512:55
Sunset17:5122:51
Evening civil twilight18:2023:20

Current date and time
Zulu (UTC)  25-Jan-2021 17:21:04
Local (UTC-5)  25-Jan-2021 12:21:04
 
METAR
KHLB 
14nm S 
251655Z AUTO 05007KT 2 1/2SM BR BKN006 M01/M01 A2998 RMK A01 P0001
KOXD 
18nm E 
251655Z AUTO 07007KT 4SM UP OVC006 00/00 A2996 RMK AO2 T10051005
KRID 
18nm NE 
251655Z AUTO 08008KT 3SM OVC006 M01/M01 A2998 RMK AO2 PWINO
KI67 
26nm SE 
251655Z AUTO 02006KT 5SM OVC011 00/M01 A2997 RMK AO1
TAF
KCVG 
39nm SE 
251459Z 2515/2618 07010KT 4SM -FZRA BR OVC006 FM251700 07012KT 3SM -RA BR OVC005 FM260400 09006KT 5SM BR VCSH OVC004 FM260800 VRB03KT P6SM OVC003 FM261500 23012KT P6SM BKN015
KLUK 
45nm SE 
251459Z 2515/2612 05008KT P6SM OVC010 FM251530 06010KT 4SM -RA BR OVC008 FM260400 09006KT 5SM BR VCSH OVC005 FM260800 VRB03KT P6SM OVC004
KDAY 
48nm NE 
251459Z 2515/2612 08008KT 4SM BR OVC008 FM251800 07012KT 2SM -FZRA BR OVC008 FM252200 07012G20KT 3SM -RA BR OVC005 FM260400 08012KT 4SM BR VCSH OVC004 FM260900 VRB03KT P6SM OVC003
NOTAMs
Click for the latest NOTAMs
NOTAMs are issued by the DoD/FAA and will open in a separate window not controlled by AirNav.

 

 
 

Would you like to see your business listed on this page?

 If your business provides an interesting product or service to pilots, flight crews, aircraft, or users of the Nulltown Wingnuts Ultralight Flightpark, you should consider listing it here.  To start the listing process, click on the button below
 
Add a business
 

Other Pages about Nulltown Wingnuts Ultralight Flightpark

Update a link
 
Copyright © AirNav, LLC. All rights reserved. Privacy Policy  Contact